Regional Weather Roundup
Issued by NWS

Home | Current Version | Previous Version | Text Only | Print | Product List | Glossary Off
Versions: 1 2 3 4 5 6 7 8 9 10 11 12 13 14 15 16 17 18 19 20 21 22 23 24 25 26 27

000
ASUS43 KDMX 222007
RWRIA

WEATHER ROUNDUP FOR IOWA
NATIONAL WEATHER SERVICE DES MOINES IA
300 PM CDT WED OCT 22 2014

NOTE: "FAIR" INDICATES FEW OR NO CLOUDS BELOW 12,000 FEET WITH NO
SIGNIFICANT WEATHER AND/OR OBSTRUCTIONS TO VISIBILITY.

* - THESE STATIONS ARE NOT NWS STATIONS...THUS NOT UNDER NWS
QUALITY CONTROL.  THEY ALSO DO NOT REPORT WEATHER SUCH
AS PRECIPITATION OR FOG.

IAZ001>003-012>014-020>022-031>034-043>046-222100-
   NORTHWEST IOWA

CITY           SKY/WX    TMP DP  RH WIND       PRES   REMARKS
CARROLL *      MOSUNNY   70  48  46 SE15G22   30.06F
CHEROKEE *     MOSUNNY   72  50  46 S18       30.00F
DENISON *      SUNNY     72  52  49 S16       30.01F
LE MARS *      SUNNY     73  52  46 S18G26    29.95F
ORANGE CITY *  SUNNY     73  48  40 S16G25    29.96F
SHELDON *      SUNNY     72  50  46 S22G28    29.96F
SIOUX CITY     PTSUNNY   75  52  44 S16G22    29.96F
SPENCER        PTSUNNY   69  48  47 SE22G29   30.01F
STORM LAKE *   SUNNY     72  48  43 S20G28    30.03F
$$

IAZ055>058-069>071-079>083-090>094-222100-
   SOUTHWEST IOWA

CITY           SKY/WX    TMP DP  RH WIND       PRES   REMARKS
ATLANTIC *     MOSUNNY   70  52  52 SE14G21   30.06F
AUDUBON *      SUNNY     68  46  45 SE14G21   30.07F
CLARINDA *     MOSUNNY   70  52  52 SE10G22   30.09F
COUNCIL BLFS * SUNNY     73  55  53 S14G21    30.02F
CRESTON *      MOSUNNY   64  48  55 SE15G24   30.11F
HARLAN  *        N/A    N/A N/A N/A S16       30.07F
LAMONI         MOSUNNY   65  47  52 SE13G23   30.13F
RED OAK *      SUNNY     72  54  53 S16G23    30.06F
SHENANDOAH *   SUNNY     73  54  49 S14G21    30.06F
$$

IAZ047>049-059>061-072>074-084-222100-
   CENTRAL IOWA

CITY           SKY/WX    TMP DP  RH WIND       PRES   REMARKS
AMES           PTSUNNY   61  45  55 SE16G22   30.13F
ANKENY *       PTSUNNY   64  46  52 SE13G21   30.13F
CHARITON *     MOSUNNY   64  46  52 SE13G21   30.15F
DES MOINES     PTSUNNY   65  46  50 SE15      30.14F
GRINNELL*      SUNNY     61  43  51 SE16      30.17F
KNOXVILLE *    SUNNY     64  46  52 SE16      30.14F
MARSHALLTOWN   SUNNY     62  43  49 S18       30.15F
PELLA *        SUNNY     64  46  52 SE14      30.18F
PERRY *          N/A     66  46  48 SE15G21   30.10F
$$

IAZ004>006-015-016-023>025-035-036-222100-
   NORTH CENTRAL IOWA

CITY           SKY/WX    TMP DP  RH WIND       PRES   REMARKS
ALGONA *       SUNNY     63  45  51 S20G29    30.07F
CLARION *      PTSUNNY   63  45  51 S16G25    30.11F
ESTHERVILLE    PTSUNNY   65  45  48 S26G32    30.03F
FORT DODGE *   MOSUNNY   63  45  51 S10G21    30.09F
MASON CITY     PTSUNNY   60  43  53 SE21G26   30.14F
FOREST CITY *  PTSUNNY   61  45  55 SE20G26   30.11F
IOWA FALLS *   PTSUNNY   63  45  51 SE13      30.16S
$$

IAZ007>011-017>019-026>030-037>042-050>054-066-222100-
   NORTHEAST IOWA

CITY           SKY/WX    TMP DP  RH WIND       PRES   REMARKS
CEDAR RAPIDS   SUNNY     59  42  53 SE12      30.22F
CHARLES CITY * MOSUNNY   59  41  51 SE16G22   30.17F
CLINTON *      SUNNY     59  39  47 SE8       30.28F
DECORAH *      SUNNY     57  37  47 S10G18    30.20F
DUBUQUE        SUNNY     57  38  48 SE13      30.25F
MONTICELLO *   SUNNY     59  37  44 SE10      30.23F
OELWEIN *      SUNNY     59  41  51 SE21      30.20F
WATERLOO       SUNNY     60  41  49 SE18G25   30.17F
$$

IAZ064-065-067-068-078-222100-
   EAST CENTRAL IOWA

CITY           SKY/WX    TMP DP  RH WIND       PRES   REMARKS
DAVENPORT      SUNNY     60  38  43 S9        30.25F
IOWA CITY      SUNNY     60  43  53 SE9       30.24F
MT. PLEASANT * SUNNY     61  39  44 S10       30.23F
MUSCATINE *    SUNNY     61  39  44 S12       30.24F
QUAD CITIES    SUNNY     61  39  44 S13       30.25F
$$

IAZ062-063-075>077-085>089-095>099-222100-
   SOUTHEAST IOWA

CITY           SKY/WX    TMP DP  RH WIND       PRES   REMARKS
BURLINGTON     SUNNY     61  40  45 SE8       30.24F
FAIRFIELD *    SUNNY     61  41  48 MISG      30.21F
FORT MADISON * SUNNY     64  41  42 SE3       30.24F
KEOKUK *       SUNNY     61  43  51 SE10      30.23F
OSKALOOSA *      N/A     63  41  45 SE15      30.19F
CENTERVILLE *  SUNNY     64  46  52 SE12      30.19F
WASHINGTON *   SUNNY     63  41  45 S13       30.22F
$$

ABBREVIATIONS USED IN REMARKS
   TC - TEMPERATURES IN CELSIUS
  WCI - WIND CHILL INDEX
   HX - HEAT INDEX
  VSB - VISIBILITY
$$




USA.gov is the U.S. government's official web portal to all federal, state and local government web resources and services.